www.pogodaiklimat.ru

Погода и климат >> Архив погоды >> Россия >> Кемеровская область >> Центральный Рудник


ПОГОДА в Центральном Руднике

  • Прогноз погоды в Центральном Руднике
  • Монитор погоды в Центральном Руднике

АРХИВ ПОГОДЫ в Центральном Руднике

Время (UTC), дата Ветер
(напр.,м/с)
 
Видим.   Явления Облачность Т
(С)
Тd
(С)
f
(%)
Тe
(С)
Тes
(С)
Комфортность P
(гПа)
Po
(гПа)
Тmin
(С)
Tmax
(С)
R
(мм)
R24
(мм)
S
(см)
18 9.06 ЮЗ 1 50 км 8/4 1000 м
[Sc Ac As Ci fib]
+11.5 +10.0 90 +11 +11 1006.5 948.6
21 9.06 Ю 1 50 км 8/5 600 м
[Cb cap Ac As Ci fib]
+9.7 +8.6 93 +9 +9 1007.0 948.7
00 10.06 ЮЗ 2 50 км 9/8 420 м
[St Ac As]
+12.3 +10.5 89 +11 +12 1006.9 949.2 +8.6
03 10.06 ЮЗ 3 50 км 9/6 600 м
[Cb cap Ac As]
+15.9 +10.9 72 +15 +17 1006.8 949.8
06 10.06 З 2 50 км 9/4 600 м
[Cb calv Ac As]
+17.8 +10.3 61 +18 +22 1006.5 949.9
09 10.06 З 4 50 км 8/4 600 м
[Cb calv Ac trans]
+19.7 +8.3 48 +21 +23 комфорт 1005.6 949.4
12 10.06 З 3
{10}
50 км 8/4 600 м
[Cb calv Ac trans]
+18.4 +8.4 52 +19 +20 1006.6 950.0 +20.8
15 10.06 ЮЗ 2 50 км 6/3 1000 м
[Sc Ac trans Ci fib]
+15.2 +8.2 63 +15 +15 1008.7 951.4
18 10.06 ЮЗ 2 50 км 9/4 1000 м
[Sc Ac As Ci fib]
+12.2 +8.2 77 +11 +11 1010.5 952.5
21 10.06 ЮЗ 1 50 км 10/4 600 м
[Cb cap Ac As Ci sp]
+11.1 +8.1 82 +11 +11 1011.4 953.1
00 11.06 З 2 50 км 10/5 600 м
[Cb cap Ac und]
+12.7 +9.5 81 +12 +12 1012.1 954.1 +10.1
03 11.06 ЮЗ 3 50 км 10/5 600 м
[Cb cap Ac und]
+14.3 +10.6 78 +13 +15 1013.1 955.5
06 11.06 З 2 50 км {ливн. осадки} 10/6 600 м
[Cb cap Ac und]
+15.7 +11.5 76 +16 +18 1013.9 956.5
09 11.06 ЮЗ 4
{10}
50 км 10/5 600 м
[Cb cap Ac As Ci fib]
+17.8 +9.4 58 +18 +20 1013.9 956.8
12 11.06 ЮЗ 3 50 км 8/4 600 м
[Cb cap Ac As Ci fib]
+17.4 +9.8 61 +17 +18 1013.7 956.5 +18.6 0.1
15 11.06 Ю 1 50 км 6/3 600 м
[Cb cap Ac trans Ci sp]
+15.0 +10.6 75 +16 +16 1014.4 956.8
18 11.06 Ю 1 50 км 4/3 1000 м
[Sc Ci fib]
+12.9 +10.6 86 +13 +13 1014.6 956.6
21 11.06 ЮВ 1 50 км 9/4 600 м
[Cb cap Ac As Ci fib]
+12.8 +9.9 83 +13 +13 1013.9 955.8
00 12.06 Ю 3 50 км 6/3 1000 м
[Sc Ac trans Ci fib]
+15.4 +9.7 69 +15 +16 1012.5 955.0 +11.9
03 12.06 ЮЗ 4 50 км 6/4 600 м
[Cb calv Ci fib]
+19.1 +9.4 53 +20 +24 1010.9 954.2
06 12.06 ЮЗ 4
{11}
50 км 8/5 600 м
[Cb cap Ci fib]
+22.0 +9.5 45 +24 +28 комфорт 1008.8 952.8
09 12.06 ЮЗ 5
{12}
50 км 8/5 600 м
[Cb cap Ci fib]
+22.5 +7.2 37 +23 +26 комфорт 1007.1 951.2
12 12.06 ЮЗ 5 50 км 8/5 600 м
[Cb cap Ci fib]
+22.5 +6.6 36 +23 +24 комфорт 1005.8 950.1 +24.0
15 12.06 Ю 2 50 км 3/3 600 м
[Cb cap]
+18.7 +8.1 50 +20 +20 1006.4 949.9
18 12.06 Ю 2 50 км 1/1 1000 м
[Sc]
+14.8 +8.1 64 +15 +15 1006.5 949.2
21 12.06 Ю 3 50 км 5/3 1000 м
[Sc Ac trans Ci fib]
+15.4 +8.3 63 +15 +15 1005.1 948.0
00 13.06 ЮЗ 2 50 км 4/3 1000 м
[Sc Ac trans Ci fib]
+16.6 +9.4 62 +17 +18 1004.7 947.9 +11.4
03 13.06 Ю 5 50 км 6/4 1000 м
[Cu hum Ac trans Ci sp]
+20.0 +10.4 54 +21 +24 комфорт 1003.6 947.5
06 13.06 ЮЗ 6-12
{12}
50 км 8/5 1000 м
[Cu med, cong Ac As Ci fib]
+23.3 +9.8 42 +25 +27 комфорт 1002.3 946.9
09 13.06 ЮЗ 5-12
{13}
50 км 8/6 600 м
[Cb calv Ac As]
+24.9 +7.5 33 +25 +27 комфорт 1000.4 945.4
12 13.06 ЮЗ 5
{13}
50 км 9/6 600 м
[Cb cap Ac As Ci fib]
+23.0 +9.6 43 +25 +25 комфорт 1000.5 945.1 +25.5
15 13.06 Ю 2 50 км 9/6 600 м
[Cb cap Ac As Ci fib]
+19.0 +11.7 63 +20 +20 1001.2 945.1
18 13.06 С 1 20 км слаб. ливневой дождь 10/6 600 м
[Cb cap Ac und]
+14.8 +13.1 90 +15 +15 1002.2 945.3
21 13.06 Ю 3 20 км слаб. ливневой дождь 9/6 600 м
[Cb cap Ac As]
+14.8 +13.0 89 +14 +14 1000.1 943.3
00 14.06 Ю 4 50 км {ливн. осадки} 9/5 600 м
[Cb cap Ac As Ci fib]
+16.2 +11.9 76 +15 +16 1000.5 943.9 +14.4 3
03 14.06 ЮЗ 3 50 км 10/8 700 м
[Cb cap Ac und]
+16.3 +12.6 79 +16 +16 1001.8 945.2
06 14.06 ЮЗ 3 50 км 10/6 600 м
[Cb cap Ac und]
+19.2 +13.1 68 +21 +22 комфорт 1001.5 945.5
09 14.06 СЗ 2 50 км 10/6 600 м
[Cb cap Ac und]
+17.9 +13.1 73 +18 +20 1002.7 946.4
12 14.06 штиль 0 50 км 10/8 1080 м
[Cb cap Ac und]
+17.1 +12.1 72 +17 +17 1003.8 947.2 +20.1
15 14.06 Ю 1 50 км 9/4 1000 м
[Sc Ac As]
+15.3 +11.5 78 +16 +16 1004.1 947.2
18 14.06 В 1 50 км 9/5 600 м
[Cb cap Ac As]
+13.6 +11.5 87 +14 +14 1004.1 946.8
21 14.06 С 1 50 км 10/6 600 м
[Cb cap Ac und]
+13.0 +11.2 89 +13 +13 1003.9 946.5
00 15.06 штиль 0 50 км 9/6 600 м
[Cb cap Ac As]
+13.7 +11.9 89 +13 +14 1003.8 946.6 +12.6
03 15.06 СЗ 2 50 км 10/5 600 м
[Cb cap Ac und]
+15.6 +12.5 82 +15 +17 1003.9 947.0
06 15.06 СЗ 1 50 км в посл. час ливневой дождь 10/8 600 м
[Cb cap Ac und]
+12.5 +11.0 91 +12 +14 1006.4 948.8
09 15.06 СВ 1 50 км 9/5 600 м
[Cb cap Ac As]
+13.9 +9.2 73 +14 +17 1006.9 949.5
12 15.06 В 2 50 км 9/5 600 м
[Cb cap Ac As Ci fib]
+13.9 +8.8 71 +13 +14 1006.6 949.2 +15.8 4
15 15.06 СВ 1 50 км 9/5 600 м
[Cb cap Ac As]
+11.9 +7.7 75 +12 +12 1006.6 948.8
18 15.06 ЮВ 1 50 км 9/4 600 м
[Cb cap Ac As]
+12.4 +9.2 81 +12 +12 1004.6 947.0
21 15.06 ЮВ 2 50 км 10/6 600 м
[Cb cap Ac und]
+12.8 +9.7 81 +12 +12 1002.8 945.4
00 16.06 штиль 0 50 км 9/6 600 м
[Cb cap Ac As]
+14.2 +11.0 81 +14 +14 1001.6 944.5 +11.7
03 16.06 Ю 4
{10}
50 км {ливн. осадки} 10/6 600 м
[Cb cap Ac As Ci fib]
+17.9 +13.0 73 +18 +19 1000.4 944.1
06 16.06 ЮЗ 6-11
{11}
50 км {ливн. осадки} 8/5 600 м
[Cb cap Ac trans Ci fib]
+19.8 +11.5 59 +21 +23 комфорт 1000.4 944.5
09 16.06 ЮЗ 3
{11}
50 км 8/6 600 м
[Cb cap Ac As Ci fib]
+22.0 +11.1 50 +24 +27 комфорт 999.0 943.6
12 16.06 Ю 2
{14}
50 км в посл. час ливневой дождь 10/6 600 м
[Cb cap Ac As Ci sp]
+13.7 +12.4 92 +13 +14 1003.4 946.2 +23.0 5
15 16.06 ЮЗ 5 50 км 10/5 600 м
[Cb cap Ac As Ci fib]
+13.8 +10.4 80 +12 +12 1005.2 947.9

 

Местоположение метеостанции Центральный Рудник (Кемеровская область, Россия): широта 55.20 долгота 87.65 высота над уровнем моря 498 м.

В архиве по умолчанию представлена погода в Центральном Руднике за последнюю неделю. Архивные данные за месяц целиком и за предыдущие месяцы, начиная с января 2011 года, Вы можете получить, выбрав интересующий диапазон дат из раскрывающегося списка и нажав кнопку "Ввод!".


*Определитесь, кто Вы:
робот инопланетянин человек

Внимание! Время в таблицах - всемирное. Для получения местного времени необходимо прибавить поправку, которая равна 7 ч.

Смотрите также архив погоды в соседних городах и на ближайших метеорологических станциях:

Погода в Крапивино (Кемеровская область, Россия) (57 км)
Погода в Тисуле (Кемеровская область, Россия) (74 км)
Погода в Ненастной (Хакасия, Россия) (90 км)
Погода в Кемерово (Кемеровская область, Россия) (91 км)
Погода в Кемерово АМС (Кемеровская область, Россия) (94 км)
Погода в Барзасе (Кемеровская область, Россия) (103 км)
Погода в Шарыпово (Красноярский край, Россия) (105 км)
Погода в Ленинск-Кузнецком (Кемеровская область, Россия) (108 км)
Погода в Мариинске (Кемеровская область, Россия) (109 км)
Погода в Тяжине (Кемеровская область, Россия) (116 км)

Пояснения к столбцам:

Ветер - указаны скорость ветра в м/с - средняя за 10 мин, порывы в срок и между сроками (в фигурных скобках) и направление, откуда дует ветер: С - северный, СВ - северо-восточный, В - восточный, ЮВ - юго-восточный, Ю - южный, ЮЗ - юго-западный, З - западный, СЗ - северо-западный.
Видимость - горизонтальная дальность видимости в метрах или километрах. При видимости от 1 до 10 км при отсутствии осадков обычно наблюдается дымка, при ухудшении видимости до 1 км и менее - туман. В сухую погоду видимость может ухудшаться дымом, пылью или мглою.
Явления - указаны атмосферные явления, наблюдавшиеся в срок или в последний час перед сроком; фигурными скобками обозначены явления, наблюдавшиеся между сроками (за 1-3 часа до срока); квадратными скобками обозначены град или гололедные отложения с указанием их диаметра в мм.
Облачность - указаны через наклонную черту общая и нижняя облачность в баллах и высота нижней границы облаков в метрах; квадратными скобками обозначены формы облаков: Ci - перистые, Cs - перисто-слоистые, Cc - перисто-кучевые, Ac - высококучевые, As - высокослоистые, Sc - слоисто-кучевые, Ns - слоисто-дождевые, Cu - кучевые, Cb - кучево-дождевые. Подробнее классификацию облаков см. в Атласе облаков (PDF).
T - Температура воздуха - температура, измеренная на высоте 2 м над землей.
Td - Температура точки росы - температура, при понижении до которой содержащийся в воздухе водяной пар достигнет насыщения.
f - Относительная влажность воздуха - влажноcть воздуха, измеренная на высоте 2 м над землей.
Te - Эффективная температура - температура, которую ощущает одетый по сезону человек в тени. Характеристика душности погоды. При расчете учитывается влияние влажности воздуха и скорости ветра на теплоощущения человека.
Tes - Эффективная температура на солнце - температура, которую ощущает человек, с поправкой на солнечный нагрев. Характеристика знойности погоды. Зависит от высоты солнца над горизонтом, облачности и скорости ветра. Ночью, в пасмурную погоду, а также при ветре 12 м/с и более поправка равна нулю.
P - Атмосферное давление - приведенное к уровню моря атмосферное давление.
Po - Атмосферное давление - измеренное на уровне метеостанции атмосферное давление.
Tmin - Минимальная температура - минимум температуры воздуха на высоте 2 м над землей.
Tmax - Максимальная температура - максимум температуры воздуха на высоте 2 м над землей.
R - Количество осадков - Количество выпавших осадков за период времени, мм. При наведении курсора мыши на число - период времени, за который выпало указанное количество осадков.
R24 - Количество осадков - Количество выпавших осадков за 24 часа, мм.
S - Снежный покров - Высота снежного покрова, см. При наведении курсора мыши на число - состояние снежного покрова и степень покрытия местности в баллах.